Location: Fours
(44.3167°N, 6.7000°E)
Time: 08:35:37
(UTC+00:00)

Cosmos 1238 Rocket - Pass Details

Date: 30 November 2020
Orbit: 375 x 1024 km, 83.0° (Epoch: 25 January)

Event Time Altitude Azimuth Distance (km) Brightness Sun altitude
Rises 18:12:08 0° 352° (N) 2,626 6.3 -23.8°
Enters shadow 18:12:57 - 352° (N) 2,285 6.0 -23.9°
Exits shadow 18:19:43 40° 174° (S) 961 3.9 -25.1°
Drops below altitude 10° 18:22:58 10° 174° (S) 2,204 5.9 -25.7°
Sets 18:25:31 0° 174° (S) 3,235 6.7 -26.2°
